URSA MAIOR (42776 NORAD) Tracking and Keplerian Element Data

This shows tracking and keplerian element data for the satellite.

Feedback or suggestion? Click here.




ElementValue
Catalog42776
NameURSA MAIOR
Epoch Orbit7729
Epoch Day318.15279623
Epoch Year2018
RAAN14.7598
Inclination97.3827
Eccentricity0.001235
Argument of Perigee258.1216
Mean Anonmoly101.8635
Mean Motion15.21093915
Decay Rate8.86E-06
L11 42776U 17036M 18318.15279623 .00000886 00000-0 42870-4 0 9996
L22 42776 97.3827 14.7598 0012350 258.1216 101.8635 15.21093915 77299

Live tracking and technical data element details for URSA MAIOR (NORAD 42776). URSA MAIOR can be tracked NOW for your location showing map with azimuth and elevation plus other details from your city location.

Track the satellite on the map from your city or location and see movement details for azimuth, elevation, latitude, longitude, range, height, and movement on the map or in text.







IsCatalogInMostPopularTable: catalog: 42776, numindb: 126
Update: records affected: 1



GetName: 42776 URSA MAIOR

Hit Count: updated at: Fri, 16 Nov 2018 03:49:28 GMT